Regional Weather Roundup
Issued by NWS

Home | Current Version | Previous Version | Text Only | Print | Product List | Glossary Off
Versions: 1 2 3 4 5 6 7 8 9 10 11 12 13 14 15 16 17 18 19 20 21 22 23 24 25 26 27 28 29 30 31 32 33 34 35 36 37 38 39 40 41 42 43 44 45 46 47 48 49 50

000
ASUS45 KABQ 170410
RWRNM
NEW MEXICO REGIONAL WEATHER ROUNDUP
NATIONAL WEATHER SERVICE ALBUQUERQUE NM
900 PM MST MON JAN 16 2017

NOTE: "FAIR" MEANS FEW OR NO CLOUDS BELOW 12,000 FEET AGL WITH NO
       SIGNIFICANT WEATHER OR OBSTRUCTIONS TO VISION.

      THIS PRODUCT IS RELEASED AS TWO VERSIONS.  ONE VERSION NEAR
      THE TOP OF THE HOUR CONTAINING PRELIMINARY DATA FROM ALBUQUERQUE
      AND OTHER STATIONS.  A FINAL VERSION WITH ADDITIONAL DATA IS
      ISSUED ABOUT 10 MINUTES AFTER THE HOUR.

NMZ501-503-504-510>518-170500-
NORTHWEST PLATEAU/NORTHCENTRAL MOUNTAINS

CITY           SKY/WX    TMP DP  RH WIND       PRES   REMARKS
FARMINGTON     LGT SNOW  32  32 100 S3        30.07R FOG
LOS ALAMOS     LGT SNOW  32  32 100 S6        30.10R WCI  27
SANTA FE       LGT RAIN  35  34  96 SE8       30.09R WCI  29
TAOS           CLOUDY    32  25  74 CALM      30.09R
ANGEL FIRE     FLURRIES  28  26  89 NE3       30.10R

$$
NMZ402-403-502-505>509-170500-
WESTCENTRAL MOUNTAINS/SOUTHWEST MOUNTAINS

CITY           SKY/WX    TMP DP  RH WIND       PRES   REMARKS
GALLUP         LGT SNOW  33  32  96 N3        30.08R FOG
GRANTS         CLOUDY    35  32  91 NW7       30.08S WCI  29
SILVER CITY    FAIR      36  34  92 N7        30.06S WCI  31

$$
NMZ407-409-411-412-170500-
SOUTHERN DESERTS

CITY           SKY/WX    TMP DP  RH WIND       PRES   REMARKS
DEMING         MOCLDY    42  38  85 NW5       30.04S
LAS CRUCES     FAIR      40  37  90 NW6       30.06S
HOLLOMAN AFB   FAIR      43  42  97 NE8       30.09R
ALAMOGORDO     FAIR      43  37  81 NE7       30.07S
T OR C         CLOUDY    42  38  85 NW8       30.06R

$$
NMZ519>523-170500-
CENTRAL VALLEYS/CENTRAL HIGHLANDS

CITY           SKY/WX    TMP DP  RH WIND       PRES   REMARKS
ALBUQUERQUE    LGT RAIN  42  39  89 SE8       30.09R
DOUBLE EAGLE   LGT RAIN  37  36  93 CALM      30.08S
MORIARTY ARPT  LGT SNOW  33  31  91 E10       30.12R WCI  25
CLINES CORNERS NOT AVBL
BELEN          CLOUDY    42  38  87 S3        30.09R
SOCORRO        CLOUDY    42  39  88 CALM      30.07R

$$
NMZ524>526-539-540-170500-
SOUTHCENTRAL MOUNTAINS

CITY           SKY/WX    TMP DP  RH WIND       PRES   REMARKS
RUIDOSO        CLOUDY    34  34 100 SW5       30.13R WCI  30

$$
NMZ527>531-170500-
NORTHEAST HIGHLANDS/NORTHEAST PLAINS

CITY           SKY/WX    TMP DP  RH WIND       PRES   REMARKS
LAS VEGAS      CLOUDY    30  28  92 NE5       30.12R WCI  25
RATON          CLOUDY    32  25  75 N9        30.11R WCI  24
CLAYTON        CLOUDY    34  32  92 N14       30.12R WCI  25

$$
NMZ532>537-170500-
EASTCENTRAL PLAINS

CITY           SKY/WX    TMP DP  RH WIND       PRES   REMARKS
TUCUMCARI      CLOUDY    40  33  76 E5        30.13R
CANNON AFB     FAIR      35  35 100 NE9       30.12R WCI  28
CLOVIS AIRPORT MOCLDY    34  28  80 NE9       30.12R WCI  26

$$
NMZ028-029-538-170500-
SOUTHEAST PLAINS

CITY           SKY/WX    TMP DP  RH WIND       PRES   REMARKS
ROSWELL        CLOUDY    48  39  71 NE10      30.07R
ARTESIA        FAIR      46  45  93 NW8       30.05S
CARLSBAD       FAIR      44  38  79 NW5       30.04R


$$



USA.gov is the U.S. government's official web portal to all federal, state and local government web resources and services.